Location: C.E.K. Mees Observatory
(42.7003°N, 77.4088°W)
Time: 01:11:07
(UTC-04:00)

Vanguard 2 - All Passes

Search period start: 18 July 2018 00:00
Search period end: 28 July 2018 00:00
Orbit: 553 x 2939 km, 32.9° (Epoch: 17 July)

Date Brightness Start Highest point End Pass type
(mag) Time Alt. Az. Time Alt. Az. Time Alt. Az.
18 Jul - 01:01:15 10° W 01:16:47 41° SSW 01:28:28 10° SE visible
18 Jul - 03:17:46 10° W 03:25:12 16° SW 03:31:24 10° SSW visible
18 Jul - 16:44:15 10° SSE 16:51:34 16° SE 17:00:05 10° E daylight
18 Jul - 18:47:20 10° SW 19:00:31 41° SSE 19:16:23 10° E daylight
18 Jul - 20:55:42 10° WSW 21:11:50 59° S 21:28:26 10° E visible
18 Jul - 23:06:42 10° W 23:23:52 56° SSW 23:38:24 10° ESE visible
19 Jul - 01:19:48 10° W 01:34:22 35° SW 01:45:35 10° SSE visible
19 Jul - 03:41:03 10° WSW 03:42:22 10° SW 03:43:39 10° SW visible
19 Jul - 16:59:41 10° S 17:08:49 22° SE 17:20:04 10° E daylight
19 Jul - 19:04:39 10° SW 19:18:16 47° SSE 19:34:46 10° E daylight
19 Jul - 21:13:37 10° WSW 21:29:53 61° S 21:46:30 10° ESE visible
19 Jul - 23:24:54 10° W 23:41:48 52° SSW 23:56:06 10° SE visible
20 Jul - 01:38:34 10° W 01:51:51 29° SW 02:02:21 10° SSE visible
20 Jul - 17:16:00 10° SSW 17:26:11 28° SE 17:39:16 10° E daylight
20 Jul - 19:22:10 10° SW 19:36:06 52° SSE 19:53:03 10° E daylight
20 Jul - 21:31:37 10° WSW 21:47:59 61° S 22:04:31 10° ESE visible
20 Jul - 23:43:11 10° W 23:59:40 47° SSW 00:13:37 10° SE visible
21 Jul - 01:57:46 10° W 02:09:13 22° SW 02:18:38 10° S visible
21 Jul - 17:32:48 10° SSW 17:43:39 35° SE 17:58:03 10° E daylight
21 Jul - 19:39:52 10° WSW 19:54:03 56° SSE 20:11:16 10° E daylight
21 Jul - 21:49:41 10° W 22:06:03 59° S 22:22:26 10° ESE visible
22 Jul - 00:01:34 10° W 00:17:23 41° SSW 00:30:54 10° SSE visible
22 Jul - 02:17:47 10° W 02:26:29 16° SW 02:34:03 10° SSW visible
22 Jul - 15:47:03 10° SSE 15:52:57 15° SE 16:00:01 10° E daylight
22 Jul - 17:49:56 10° SW 18:01:14 41° SSE 18:16:35 10° E daylight
22 Jul - 19:57:41 10° WSW 20:12:03 59° S 20:29:26 10° E daylight
22 Jul - 22:07:48 10° W 22:24:04 56° SSW 22:40:14 10° ESE visible
23 Jul - 00:20:07 10° W 00:35:02 35° SW 00:47:55 10° SSE visible
23 Jul - 02:40:25 10° WSW 02:43:43 11° SW 02:46:50 10° SW visible
23 Jul - 16:02:39 10° S 16:10:11 21° SE 16:19:57 10° E daylight
23 Jul - 18:07:19 10° SW 18:18:57 47° SSE 18:34:58 10° E daylight
23 Jul - 20:15:36 10° WSW 20:30:07 60° S 20:47:32 10° ESE daylight
23 Jul - 22:25:59 10° W 22:42:02 51° SSW 22:57:53 10° SE visible
24 Jul - 00:38:57 10° W 00:52:33 28° SW 01:04:32 10° SSE visible
24 Jul - 16:19:06 10° SSW 16:27:31 27° SE 16:39:06 10° E daylight
24 Jul - 18:24:53 10° SW 18:36:46 52° SSE 18:53:16 10° E daylight
24 Jul - 20:33:34 10° WSW 20:48:11 59° S 21:05:32 10° ESE daylight
24 Jul - 22:44:15 10° W 22:59:55 46° SSW 23:15:19 10° SE visible
25 Jul - 00:58:15 10° W 01:10:00 22° SW 01:20:35 10° S visible
25 Jul - 16:36:00 10° SSW 16:44:58 33° SE 16:57:51 10° E daylight
25 Jul - 18:42:37 10° WSW 18:54:42 56° SSE 19:11:31 10° E daylight
25 Jul - 20:51:37 10° W 21:06:15 57° S 21:23:26 10° ESE visible
25 Jul - 23:02:37 10° W 23:17:42 39° SSW 23:32:30 10° SSE visible
26 Jul - 01:18:28 10° WSW 01:27:22 16° SW 01:35:39 10° SSW visible
26 Jul - 14:50:45 10° SSE 14:54:52 13° SE 14:59:47 10° ESE daylight
26 Jul - 16:53:13 10° SW 17:02:32 40° SSE 17:16:22 10° E daylight
26 Jul - 19:00:26 10° WSW 19:12:41 58° S 19:29:41 10° ESE daylight
26 Jul - 21:09:43 10° W 21:24:17 53° SSW 21:41:13 10° SE visible
26 Jul - 23:21:13 10° W 23:35:24 33° SW 23:49:22 10° SSE visible
27 Jul - 01:42:01 10° WSW 01:44:43 11° SW 01:47:21 10° SW visible
27 Jul - 15:06:17 10° S 15:12:07 19° SE 15:19:49 10° E daylight
27 Jul - 17:10:39 10° SW 17:20:15 45° SSE 17:34:46 10° E daylight
27 Jul - 19:18:20 10° WSW 19:30:43 58° S 19:47:48 10° ESE daylight
27 Jul - 21:27:52 10° W 21:42:15 48° SSW 21:58:48 10° SE visible
